Location: ActonStarParty
(42.4766°N, 71.4538°W)
Time: 03:58:59
(UTC-04:00)

Daily predictions for brighter satellites

Satellite Brightness Start Highest point End
(mag) Time Altitude Azimuth Time Altitude Azimuth Time Altitude Azimuth
Cosmos 44 Rocket 4.0 00:03:45 28° WSW 00:06:19 56° NW 00:11:30 10° NNE
Cosmos 389 Rocket 4.0 00:04:02 10° NNW 00:06:44 29° WNW 00:06:44 29° WNW
NOSS 3-4 (A) 4.2 00:07:02 36° ESE 00:07:23 36° ESE 00:13:15 10° NE
NOSS 3-4 (C) 4.2 00:07:09 36° ESE 00:07:28 36° ESE 00:13:20 10° NE
Terra 4.1 00:09:58 11° WSW 00:11:30 13° W 00:13:42 10° WNW
Okean 1-7 4.1 00:08:10 10° NNW 00:11:59 32° W 00:12:15 32° W
Cosmos 158 Rocket 4.2 00:07:42 10° NNW 00:12:49 53° WSW 00:13:25 50° SW
ALOS 2 2.4 00:13:37 83° ESE 00:13:43 85° ENE 00:18:08 10° NNW
GEOS 3 Rocket 3.7 00:13:50 47° ESE 00:15:18 71° NE 00:20:29 10° NNW
Uosat 12 SS-18 rocket 4.4 00:16:27 50° WSW 00:17:35 68° NW 00:22:02 10° NNE
Coronas F rocket 4.0 00:19:36 20° NNE 00:19:36 20° NNE 00:20:35 10° N
Meteor 2-3 Rocket 4.1 00:17:03 40° SW 00:18:53 57° WNW 00:24:30 10° N
Cosmos 1825 4.0 00:22:21 23° ENE 00:22:21 23° ENE 00:24:41 10° NE
Meteor 2-10 Rocket 3.8 00:21:51 10° NNW 00:27:26 68° W 00:28:33 55° SSW
Cosmos 2084 Rocket 4.2 00:28:49 39° WNW 00:29:16 41° NW 00:32:54 10° NNE
Cosmos 2263 Rocket 2.9 00:29:49 38° ESE 00:30:07 38° ESE 00:35:20 10° NE
Meteor 1-10 Rocket 4.3 00:26:10 10° NNW 00:32:09 78° W 00:33:24 57° SSW
Helios 1B 4.5 00:32:48 80° W 00:32:48 80° W 00:37:05 10° NNW
MOS 1-B Rocket 4.0 00:31:37 46° SE 00:33:07 63° ENE 00:38:40 10° N
Cosmos 921 Rocket 3.0 00:37:04 76° NNW 00:37:04 76° NNW 00:41:03 10° NNE
Okean 2 Rocket 4.2 00:38:17 33° E 00:38:17 33° E 00:42:16 10° NNE
Cosmos 1356 Rocket 3.7 00:40:30 59° WNW 00:40:30 59° WNW 00:44:18 10° N
Lacrosse 4 Rocket 4.0 00:39:10 10° W 00:40:03 11° W 00:40:03 11° W
Cosmos 1674 Rocket 3.8 00:38:11 10° NNW 00:42:28 60° W 00:42:28 60° W
Cosmos 1607 3.9 00:38:40 10° NW 00:44:45 62° WSW 00:45:42 55° SSW
SL-16 R/B 4.1 00:42:22 10° WNW 00:45:34 15° W 00:46:17 15° WSW
ATLAS 3B R/B 4.1 00:41:02 10° WNW 00:45:46 20° WSW 00:46:35 20° WSW
Nadezhda 3 Rocket 4.0 00:42:38 10° NNW 00:48:51 71° W 00:50:20 52° SSW
CZ-2C R/B 2.6 00:44:24 10° NNE 00:49:34 62° E 00:50:05 58° SE
Cosmos 1689 Rocket 4.2 00:52:09 26° NW 00:52:09 26° NW 00:54:00 10° NNW
Cosmos 1975 Rocket 3.3 00:50:18 10° N 00:54:38 57° E 00:54:40 57° E
Cosmos 1782 3.9 00:56:00 10° NNW 00:59:07 36° WNW 00:59:07 36° WNW
Cosmos 44 4.3 00:57:49 30° WSW 01:00:02 47° NW 01:05:19 10° NNE
USA 238 DEB 4.4 00:54:57 10° NW 01:01:15 36° WSW 01:02:06 35° SW
USA 238 4.4 00:55:03 10° NW 01:01:21 37° WSW 01:02:12 35° SW
Cosmos 1908 Rocket 3.6 01:02:05 66° WNW 01:02:05 66° WNW 01:06:21 10° N
Cosmos 1943 3.1 01:01:48 10° NNW 01:07:26 65° WSW 01:08:08 60° SSW
Geosat 3.9 01:03:51 10° NNE 01:08:54 87° WNW 01:09:37 67° SW
Okean 3 3.5 01:04:40 10° N 01:08:50 81° NW 01:08:50 81° NW
BREEZE-M DEB (TANK) 3.4 01:04:51 10° WNW 01:09:06 38° W 01:09:06 38° W
Cosmos 909 Rocket 4.5 01:09:20 43° SE 01:10:40 48° ESE 01:17:34 10° NE
Cosmos 1238 Rocket 4.0 01:14:25 10° NNW 01:16:55 30° NW 01:16:55 30° NW
H-2A R/B 4.3 01:14:34 10° NNW 01:17:56 23° WNW 01:18:48 22° W
CENTAUR R/B 4.1 01:12:00 10° NNW 01:19:16 43° NE 01:27:01 10° ESE
USA 234 4.5 01:15:16 10° E 01:21:16 41° NNE 01:27:18 10° NW
Cosmos 1606 4.0 01:18:47 10° NNW 01:21:35 32° WNW 01:21:35 32° WNW
SeaSat 1 4.3 01:23:17 17° W 01:23:17 17° W 01:25:51 10° WNW
Meteor 1-27 Rocket 4.2 01:19:34 10° NNW 01:25:07 47° W 01:26:02 43° WSW
Helios 1A Rocket 4.1 01:22:43 10° N 01:26:27 32° WNW 01:26:47 32° W
CZ-4C R/B 3.3 01:25:17 10° NW 01:32:05 45° WSW 01:33:37 41° SSW
Cosmos 1184 Rocket 3.8 01:33:17 47° NNE 01:33:17 47° NNE 01:35:46 10° NNE
RESURS DK-1 2.3 01:32:36 79° NNW 01:32:36 79° NNW 01:36:38 10° NNE
Cosmos 1408 3.7 01:33:18 39° WNW 01:33:18 39° WNW 01:36:25 10° N
NOSS 3-2 (C) 4.0 01:27:48 10° NW 01:35:13 63° WSW 01:38:05 41° S
Cosmos 1624 Rocket 3.9 01:35:46 63° S 01:36:34 77° ESE 01:41:50 10° NNE
Cosmos 2151 Rocket 3.7 01:37:21 61° ESE 01:37:38 63° E 01:42:04 10° NNE
PSLV R/B 4.3 01:36:15 10° NNE 01:40:13 39° E 01:40:27 39° ESE
Meteor 1-14 Rocket 4.3 01:39:42 52° S 01:41:15 82° E 01:47:09 10° NNE
Cosmos 1867 3.8 01:39:58 10° NW 01:45:14 48° WSW 01:45:23 48° WSW
CZ-2C R/B 3.5 01:47:42 48° SW 01:48:44 54° W 01:54:12 10° NNW
ERS-2 4.4 01:50:18 10° NE 01:52:40 16° E 01:53:09 16° ESE
Meteor 2-19 Rocket 4.4 01:50:44 46° S 01:52:42 82° E 01:58:54 10° N
NOSS 3-2 (A) 4.5 01:49:45 10° NW 01:56:40 40° WSW 01:58:20 36° SW
Cosmos 1825 4.0 01:57:17 21° WNW 01:57:17 21° WNW 02:00:09 10° NNW
NOSS 3-4 (A) 4.3 01:54:26 24° WSW 01:58:08 47° NW 02:04:31 10° NNE
NOSS 3-4 (C) 4.3 01:54:34 24° WSW 01:58:13 47° NW 02:04:36 10° NNE
Cosmos 1452 Rocket 4.1 01:57:07 39° SE 01:58:23 47° ESE 02:03:24 10° NNE
Meteor 2-8 Rocket 4.4 01:58:19 10° NNW 02:04:21 67° W 02:06:15 44° SSW
Meteor 1-18 Rocket 4.2 01:58:46 10° N 02:04:29 89° E 02:06:31 43° S
BREEZE-M DEB (TANK) 3.9 01:54:28 10° WNW 02:05:05 49° SW 02:05:38 47° SSW
Cosmos 1242 Rocket 3.4 02:03:02 10° NNW 02:05:38 39° NW 02:05:38 39° NW
Cosmos 1339 Rocket 4.4 02:02:55 10° NNW 02:08:58 68° W 02:10:56 43° SSW
Cosmos 1844 Rocket 3.0 02:08:12 40° SSE 02:09:54 55° ESE 02:15:27 10° NNE
GP-B 4.0 02:05:41 10° NNE 02:09:55 42° E 02:11:21 32° SE
Cosmos 1812 2.7 02:07:55 10° N 02:11:50 72° E 02:12:12 65° SE
Meteor 1-20 Rocket 4.3 02:10:58 42° S 02:13:01 77° E 02:18:49 10° NNE
Gbstr 26 Del rocket 2.8 02:13:29 63° SE 02:13:29 63° SE 02:17:09 10° ENE
Cosmos 2263 Rocket 3.4 02:11:29 23° W 02:14:04 33° NW 02:19:11 10° N
JB-3 4.1 02:11:10 10° NNE 02:15:03 81° ESE 02:15:21 74° SSE
IRS-P3 4.4 02:11:19 10° NNE 02:16:38 62° ESE 02:18:33 38° SSE
Resurs 1-4 Rocket 4.5 02:15:03 10° ENE 02:17:44 14° E 02:20:24 10° ESE
NOSS 2-2 (C) 4.3 02:19:06 36° SE 02:19:38 38° ESE 02:23:56 10° NE
Cosmos 1190 Rocket 4.2 02:17:37 10° NNW 02:22:41 51° WSW 02:23:36 45° SW
Cosmos 1844 4.0 02:25:12 35° S 02:27:22 57° ESE 02:33:01 10° NNE
ATLAS 5 CENTAUR R/B 3.5 02:22:48 10° NNW 02:28:30 45° NE 02:34:34 10° ESE
CZ-2C R/B 4.5 02:25:54 10° NNW 02:29:21 18° WNW 02:31:36 14° W
Cosmos 1300 Rocket 3.4 02:29:48 55° SSW 02:30:42 85° W 02:35:06 10° N
SL-08 R/B 3.5 02:29:13 30° SSE 02:31:37 75° ENE 02:36:30 10° N
Meteor 1-11 Rocket 4.4 02:28:37 26° SSE 02:31:49 53° E 02:37:37 10° NNE
Abrixas rocket 3.9 02:31:34 20° WNW 02:33:18 33° NNW 02:36:24 10° NE
COSMOS 2487 3.7 02:29:58 10° N 02:33:26 40° ENE 02:35:21 22° SE
Meteor 1-13 Rocket 4.4 02:28:30 10° N 02:34:13 71° E 02:37:55 23° SSE
Cosmos 2056 Rocket 4.5 02:32:51 27° WSW 02:34:49 37° WNW 02:39:39 10° N
Cosmos 407 Rocket 3.7 02:30:25 10° NNW 02:35:24 49° WSW 02:36:34 41° SW
Cosmos 1633 4.3 02:35:53 21° SE 02:37:14 27° E 02:40:20 10° NNE
Cosmos 1535 Rocket 4.4 02:35:38 34° S 02:38:35 88° W 02:44:55 10° N
Cosmos 2278 Rocket 2.8 02:36:48 28° SSE 02:39:24 48° ESE 02:44:51 10° NE
AQUA 3.8 02:38:54 10° NNE 02:43:40 76° ESE 02:45:34 37° S
NOSS 2-2 (E) 3.6 02:43:13 46° SSW 02:44:25 75° ESE 02:49:19 10° NE
COSMOS 2406 3.7 02:39:49 10° NW 02:45:12 42° WSW 02:46:47 34° SW
Cosmos 676 Rocket 4.2 02:42:01 10° NNW 02:47:03 52° WSW 02:48:42 37° SSW
Okean 1 3.7 02:46:21 10° NNW 02:50:11 44° W 02:50:39 42° WSW
USA 161 3.1 02:49:31 23° ESE 02:50:43 33° ENE 02:53:26 10° N
Cosmos 1461 3.3 02:50:09 38° S 02:51:49 66° ESE 02:56:24 10° NE
Cosmos 1400 Rocket 4.0 02:50:23 22° SE 02:52:14 36° E 02:55:53 10° NNE
SL-27 R/B 4.0 02:52:25 10° NW 02:54:52 24° W 02:54:52 24° W
Cosmos 2082 Rocket 3.9 02:52:05 10° N 02:57:15 33° NE 03:02:23 10° ESE
USA 234 3.2 02:57:27 10° SE 03:03:59 76° SW 03:10:33 10° NW
Cosmos 1602 3.6 03:03:09 42° SSW 03:04:20 74° W 03:08:12 10° N
Cosmos 614 Rocket 4.0 03:01:58 10° NNW 03:07:10 78° ENE 03:12:16 10° SSE
NPP 4.0 03:05:02 10° N 03:10:17 54° WNW 03:13:05 27° SW
CENTAUR R/B 3.2 03:02:40 10° NW 03:10:19 56° WSW 03:18:21 10° SSE
Cosmos 1934 Rocket 4.1 03:08:09 26° SSW 03:11:42 65° W 03:17:49 10° N
IRS-1D 4.1 03:06:50 10° NNE 03:11:46 50° E 03:15:28 17° S
Cosmos 1954 Rocket 4.5 03:07:09 10° NW 03:11:58 40° WSW 03:13:58 28° SSW
Meteor 2-4 Rocket 3.7 03:07:54 10° N 03:13:19 79° E 03:18:18 12° SSE
CBERS 1 LM4 rocket 4.4 03:12:08 10° N 03:17:00 70° WNW 03:19:36 27° SSW
Okean 1 Rocket 4.2 03:16:19 24° WSW 03:17:53 30° WNW 03:21:51 10° NNW
Meteor 2-15 Rocket 4.4 03:15:25 10° NNW 03:21:35 75° W 03:26:48 15° S
Cosmos 1315 Rocket 3.6 03:19:38 17° SSE 03:22:30 49° E 03:26:24 10° NNE
CZ-2D R/B 2.7 03:18:43 10° NNE 03:24:06 55° E 03:28:57 13° S
ERS-2 3.1 03:23:11 10° N 03:26:35 34° WNW 03:28:00 25° WSW
Cosmos 1174 4.4 03:24:35 10° NNW 03:28:11 48° NE 03:31:16 10° SE
Cosmos 1025 Rocket 3.4 03:26:46 10° NNW 03:30:53 45° W 03:33:09 24° SSW
Timation 2 Rocket 3.8 03:26:12 10° NNW 03:32:21 80° WSW 03:38:19 10° SSE
Cosmos 1833 Rocket 3.6 03:29:50 10° NNW 03:35:18 50° ENE 03:40:44 10° SE
UNK 3.7 03:32:54 10° SSE 03:37:32 87° ENE 03:42:12 10° NNW
Okean O Rocket 3.4 03:34:01 10° NE 03:37:44 27° E 03:41:25 10° SSE
ARIANE 5 R/B 2.4 03:34:00 10° NNE 03:39:01 81° WNW 03:42:54 17° SSW
Cosmos 1455 Rocket 3.1 03:36:20 18° S 03:39:41 89° WNW 03:44:10 10° N
Cosmos 1110 Rocket 4.4 03:36:07 14° S 03:40:34 62° ESE 03:45:48 10° NNE
Cosmos 2061 Rocket 4.5 03:34:47 10° S 03:41:00 62° E 03:47:20 10° NNE
Cosmos 1975 4.2 03:37:43 10° SSE 03:41:23 36° E 03:45:04 10° NNE
UNKNOWN OBJECT B 3.5 03:38:51 10° NNE 03:42:54 55° E 03:46:43 11° S
Cosmos 1536 3.9 03:47:37 19° SW 03:49:45 31° WNW 03:53:24 10° NNW
Cosmos 1605 Rocket 4.5 03:47:06 17° SW 03:51:36 45° WNW 03:57:37 10° N
Cosmos 1356 4.3 03:50:06 21° SW 03:51:59 36° WNW 03:55:18 10° N
Okean 2 3.6 03:48:01 10° NNW 03:52:01 52° W 03:55:30 13° SSW
Cosmos 1844 Rocket 4.2 03:49:51 11° WSW 03:54:10 25° NW 03:58:46 10° N
Resurs 1-4 Rocket 2.1 03:52:50 10° N 03:58:09 75° WNW 04:03:08 12° SSW
SL-16 R/B 2.6 03:52:12 10° S 03:58:20 59° WSW 04:04:29 10° NNW
Gbstr 26 Del rocket 4.3 03:56:56 10° W 04:00:25 29° NNW 04:03:43 10° NE
Cosmos 1331 Rocket 4.1 03:55:39 12° SSW 04:00:31 81° ESE 04:05:44 10° NNE
ATLAS 2A CENTAUR R/B 4.4 03:54:19 15° SW 04:01:01 31° S 04:33:32 10° SE
Cosmos 2016 Rocket 4.4 03:55:51 10° S 04:02:04 66° E 04:08:14 10° NNE
EO 1 Del DPAF 3.7 03:59:24 11° S 04:02:57 44° W 04:06:41 10° NNW
Cosmos 1544 Rocket 4.5 04:02:40 15° SW 04:05:46 33° WNW 04:09:46 10° N
Abrixas rocket 4.2 04:07:54 10° WNW 04:10:57 30° N 04:13:59 10° ENE
Cosmos 1633 4.4 04:10:16 12° WSW 04:12:19 18° WNW 04:14:51 10° NNW
ATLAS 5 CENTAUR R/B 2.9 04:07:40 10° NW 04:13:13 38° WSW 04:19:05 10° S
BREEZE-M DEB (TANK) 3.9 04:11:14 10° WNW 04:15:43 29° N 04:17:56 10° ENE
ADEOS II 4.5 04:12:50 10° NE 04:16:45 21° E 04:20:38 10° SE
USA 129 1.5 04:19:43 10° S 04:21:46 63° WSW 04:23:45 10° NNW
Cosmos 2278 Rocket 3.5 04:18:55 10° WSW 04:23:43 28° NW 04:28:33 10° N
ASTRO F (AKARI) 4.5 04:20:26 10° SSE 04:23:52 84° WSW 04:27:32 10° NNW
Cosmos 2297 4.2 04:20:31 10° SW 04:25:54 48° WNW 04:31:26 10° NNE
Cosmos 2173 Rocket 4.1 04:20:23 10° SSW 04:26:24 60° W 04:32:32 10° N
CZ-2C R/B 3.8 04:24:32 10° S 04:29:16 71° WSW 04:34:04 10° NNW
Cosmos 2285 Rocket 4.2 04:28:15 10° SSW 04:34:31 79° ESE 04:40:52 10° NNE
CZ-2D R/B 3.8 04:32:05 10° N 04:35:57 48° WNW 04:39:53 10° SSW
Cosmos 1459 Rocket 4.4 04:32:46 10° SSW 04:38:50 48° WNW 04:44:54 10° N
Cosmos 1302 Rocket 4.0 04:34:47 10° SSW 04:39:59 77° WNW 04:45:15 10° NNE
CZ-4B R/B 3.4 04:35:27 10° NNE 04:41:10 87° WNW 04:46:49 10° SSW
Cosmos 2082 Rocket 2.7 04:36:07 10° NW 04:41:22 38° WSW 04:46:35 10° S
Cosmos 1802 Rocket 4.3 04:36:06 10° SSW 04:42:04 52° WNW 04:48:03 10° N
